This demonstration page uses our WeatherBlox Daily Observations layout. Learn more.

Left ArrowRight Arrow

39.01783, -85.05884

Hourly Observations for August 16, 2021

Temp ( °F °C ) Dew Point ( °F °C ) Humidity (%) Winds ( mph kmh ) Pressure ( in mb ) Visibility ( mi km ) Precip ( " mm )
12:52 am 00:52 Cloudy 71 21.7 62 16.7 73 73 E 8 13 30.07 1018 10 16 0.00 0.00
1:14 am 01:14 Mostly Cloudy 70 21.1 62 16.7 76 76 E 8 13 30.06 1018 10 16 0.00 0.00
1:52 am 01:52 Mostly Cloudy 70 21.1 62 16.7 76 76 E 7 11 30.06 1018 10 16 0.00 0.00
2:37 am 02:37 Cloudy with Light Rain 69 20.6 63 17.2 81 81 E 7 11 30.05 1017 10 16 0.00 0.00
2:52 am 02:52 Cloudy with Light Rain 69 20.6 63 17.2 81 81 E 6 9 30.04 1017 10 16 0.00 0.00
3:52 am 03:52 Cloudy with Light Rain 69 20.6 64 17.8 84 84 ENE 6 9 30.03 1017 10 16 0.00 0.00
4:33 am 04:33 Cloudy 69 20.6 64 17.8 84 84 NNE 7 11 30.03 1017 10 16 0.01 0.25
4:52 am 04:52 Cloudy 69 20.6 64 17.8 84 84 NNE 7 11 30.03 1017 10 16 0.01 0.25
5:52 am 05:52 Cloudy 68 20 63 17.2 84 84 NNE 6 9 30.03 1017 10 16 0.00 0.00
6:52 am 06:52 Cloudy 68 20 63 17.2 84 84 NE 6 9 30.04 1017 10 16 0.00 0.00
7:23 am 07:23 Cloudy 68 20 63 17.2 84 84 ENE 8 13 30.05 1018 9 14 0.00 0.00
7:52 am 07:52 Cloudy with Light Rain 68 20 64 17.8 87 87 E 3 6 30.05 1018 6 10 0.00 0.00
8:04 am 08:04 Cloudy with Heavy Rain 68 20 64 17.8 87 87 E 6 9 30.06 1018 2 3 0.00 0.00
8:05 am 08:05 Cloudy with Heavy Rain 68 20 64 17.8 87 87 E 6 9 30.05 1018 2 2 0.00 0.00
8:22 am 08:22 Cloudy with Rain 67 19.4 65 18.3 93 93 ENE 6 9 30.05 1018 2 2 0.52 13.21
8:40 am 08:40 Cloudy with Light Rain 68 20 65 18.3 90 90 E 6 9 30.05 1018 2 2 0.70 17.78
8:52 am 08:52 Cloudy with Light Rain 68 20 65 18.3 90 90 ENE 5 7 30.05 1018 4 6 0.75 19.05
9:09 am 09:09 Cloudy with Light Rain 68 20 65 18.3 90 90 NNE 5 7 30.06 1018 3 5 0.01 0.25
9:20 am 09:20 Cloudy with Light Rain 68 20 65 18.3 90 90 E 5 7 30.06 1018 2 3 0.04 1.02
9:42 am 09:42 Cloudy with Light Rain 68 20 65 18.3 90 90 NE 6 9 30.06 1018 3 4 0.28 7.11
9:52 am 09:52 Cloudy with Light Rain 68 20 65 18.3 90 90 ENE 7 11 30.06 1018 3 5 0.35 8.89
10:06 am 10:06 Cloudy with Light Rain 69 20.6 66 18.9 90 90 ENE 6 9 30.07 1018 5 8 0.02 0.51
10:35 am 10:35 Cloudy with Rain 69 20.6 66 18.9 90 90 ESE 8 13 30.07 1018 3 4 0.04 1.02
10:52 am 10:52 Cloudy with Rain 69 20.6 66 18.9 90 90 E 8 13 30.06 1018 2 2 0.35 8.89
10:59 am 10:59 Cloudy with Rain 69 20.6 66 18.9 90 90 E 12 19 30.07 1018 2 2 0.12 3.05
11:06 am 11:06 Cloudy with Rain 69 20.6 66 18.9 90 90 E 9 15 30.07 1018 2 2 0.22 5.59
11:21 am 11:21 Cloudy with Light Rain 70 21.1 67 19.4 90 90 NE 5 7 30.06 1018 3 4 0.26 6.60
11:42 am 11:42 Cloudy with Mist and Fog 72 22.2 68 20 87 87 ENE 5 7 30.07 1018 6 10 0.28 7.11
11:52 am 11:52 Cloudy with Light Rain 71 21.7 68 20 90 90 NE 5 7 30.07 1018 6 10 0.28 7.11
12:52 pm 12:52 Cloudy with Mist and Fog 74 23.3 68 20 82 82 Calm 30.06 1018 4 6 0.05 1.27
1:20 pm 13:20 Cloudy with Mist and Fog 74 23.3 69 20.6 85 85 Calm 30.05 1018 4 6 0.00 0.00
1:52 pm 13:52 Cloudy with Mist and Fog 75 23.9 69 20.6 82 82 Calm 30.04 1017 4 6 0.00 0.00
2:05 pm 14:05 Cloudy with Mist and Fog 76 24.4 70 21.1 82 82 Calm 30.03 1017 9 14 0.00 0.00
2:43 pm 14:43 Cloudy 78 25.6 70 21.1 76 76 S 7 11 30.02 1017 10 16 0.00 0.00
2:52 pm 14:52 Cloudy 78 25.6 70 21.1 76 76 S 7 11 30.02 1017 10 16 0.00 0.00
3:52 pm 15:52 Cloudy 80 26.7 68 20 67 67 S 5 7 30.00 1016 10 16 0.00 0.00
4:52 pm 16:52 Cloudy 79 26.1 68 20 69 69 SE 7 11 29.99 1016 10 16 0.00 0.00
5:52 pm 17:52 Cloudy 79 26.1 68 20 69 69 SSW 5 7 29.99 1016 10 16 0.00 0.00
6:52 pm 18:52 Cloudy 78 25.6 69 20.6 74 74 E 7 11 29.99 1016 10 16 0.00 0.00
7:52 pm 19:52 Mostly Cloudy 77 25 69 20.6 77 77 SSE 8 13 29.99 1016 10 16 0.00 0.00
8:52 pm 20:52 Cloudy 75 23.9 68 20 79 79 SE 7 11 30.00 1016 10 16 0.00 0.00
9:52 pm 21:52 Mostly Cloudy 74 23.3 69 20.6 85 85 SE 7 11 30.00 1016 10 16 0.00 0.00
10:52 pm 22:52 Mostly Cloudy 73 22.8 69 20.6 87 87 SSE 7 11 30.01 1016 10 16 0.00 0.00
11:52 pm 23:52 Mostly Cloudy 72 22.2 68 20 87 87 SSE 5 7 30.02 1017 10 16 0.00 0.00

Powered by AerisWeather